IRIDIUM 64 [P]

Last updated on Fri Mar 22 2019 03:12:05 GMT+0000 (Coordinated Universal Time)

1 25287U 98021C 19080.85991452 .02484534 -15142-5 11932-2 0 9992 2 25287 86.4289 315.0216 0389417 166.7527 194.4331 15.47371490 97289

Satellite not in orbit